[[{"header":{"parameterUnit":"m.s-1","parameterCategory":1,"la1":30.2991,"la2":30.254,"lo1":-89.0895,"lo2":-89.0444,"dy":0.0017,"dx":0.0017,"nx":28,"ny":28,"refTime":"2025-08-23T21:00:00:Z","depth":0,"parameterNumber":2,"parameterNumberName":"U-component_of_WINDS"},"data":[0,0,0,0,0,0,0,0,0,0,0,0,0,0,0,0,0,0,0,0,0,0,0,0,0,0,0,0,0,0,0,0,0,0,0,0,0,0,0,0,0,0,0,0,0,0,0,0,0,0,0,0,0,0,0,0,0,0,2.5428,2.5428,0,2.5381,2.538,2.538,2.526,2.5257,2.5255,2.5253,2.5207,2.5208,2.5209,0,0,0,0,0,0,0,0,0,0,0,0,0,2.5419,2.542,2.5429,2.5428,2.5427,2.5381,2.538,2.538,2.526,2.5257,2.5254,2.5251,2.5206,2.5208,2.5209,0,0,0,0,0,0,0,0,0,0,0,0,0,2.5403,2.5421,2.5429,2.5362,2.5356,2.5381,2.538,2.5379,2.5261,2.5257,2.5253,2.525,2.5206,2.5208,2.5209,2.5296,0,0,2.5214,2.5215,0,0,0,0,0,0,0,0,2.5404,2.5403,2.5373,2.5367,2.536,2.5322,2.536,2.5352,2.5262,2.5297,2.5252,2.5248,2.5248,2.5246,2.5246,2.5294,2.5292,2.5215,2.5216,2.5216,2.5217,0,0,0,0,0,0,0,2.5405,2.5405,2.541,2.5372,2.5364,2.5336,2.5329,2.5358,2.5295,2.5294,2.5285,2.5281,2.5244,2.5245,2.5244,2.5291,2.5215,2.5216,2.5217,2.5218,2.5407,2.5411,0,0,0,0,0,0,2.5416,2.5407,2.5411,2.5408,2.5373,2.5339,2.5332,2.5338,2.5294,2.5284,2.5284,2.5275,2.5244,2.5242,2.5242,2.5338,2.5216,2.5218,2.5219,2.5403,2.5408,2.5412,0,0,0,0,0,0,2.5416,2.5417,2.5413,2.5405,2.5402,2.5343,2.5352,2.5339,2.5339,2.5287,2.5275,2.5296,2.524,2.524,2.5283,2.5335,2.5219,2.522,2.5398,2.5404,2.541,2.5534,0,0,0,0,0,0,2.5416,2.5418,2.5449,2.5407,2.5403,2.5454,2.5355,2.5341,2.5342,2.533,2.5295,2.5285,2.5237,2.5281,2.5285,2.5336,2.5222,2.5393,2.5401,2.5408,2.5525,2.5544,2.556,0,0,0,0,0,2.5416,2.5487,2.5452,2.5453,2.5441,2.5457,2.5456,2.5398,2.5347,2.5378,2.5345,2.5286,2.533,2.5286,2.529,2.5342,2.5389,2.5399,2.5407,2.5517,2.554,2.5559,0,0,0,0,0,0,2.5539,2.548,2.544,2.5499,2.5484,2.5437,2.5475,2.5424,2.5424,2.5413,2.5343,2.5336,2.5389,2.537,2.5323,2.5423,2.535,2.536,2.5433,2.5454,2.5471,2.5473,2.5223,0,0,0,0,0,2.5573,2.559,2.5538,2.5596,2.559,2.5535,2.5539,2.5497,2.5478,2.5472,2.5441,2.5427,2.5437,2.5445,2.5451,2.5523,2.5513,2.5561,2.5578,2.5593,2.5601,2.5636,2.5656,2.5441,2.5441,2.5441,0,0,2.5643,2.5613,2.5628,2.562,2.5603,2.5622,2.553,2.5555,2.5569,2.5476,2.5513,2.5492,2.5471,2.5528,2.5552,2.5514,2.5659,2.5604,2.5616,2.5616,2.5647,2.5668,2.5686,2.5448,2.5446,2.5445,0,0,2.578,2.576,2.5804,2.5789,2.5765,2.5727,2.5739,2.5699,2.568,2.5718,2.5648,2.5665,2.5684,2.5671,2.5668,2.5802,2.5747,2.5807,2.5895,2.593,2.5947,2.5962,2.6007,2.6025,2.5816,2.5816,2.5816,0,2.587,2.5895,2.5834,2.5863,2.5861,2.5777,2.5822,2.5811,2.5791,2.5792,2.575,2.5772,2.5752,2.5805,2.5837,2.5838,2.5848,2.5808,2.595,2.5964,2.5976,2.6019,2.6037,2.5823,2.5822,2.5822,2.5821,0,2.6007,2.6026,2.6065,2.6046,2.6049,2.6086,2.603,2.6041,2.5999,2.5967,2.6006,2.598,2.5979,2.5989,2.5949,2.6036,2.6013,2.5962,2.5886,2.6005,2.6044,2.606,2.5833,2.5831,2.5829,2.5827,0,0,2.6216,2.6163,2.6178,2.6168,2.6136,2.615,2.6184,2.6182,2.6192,2.6182,2.6208,2.6227,2.6179,2.6175,2.6133,2.6164,2.627,2.6109,2.6107,2.6137,2.6362,2.6398,2.6418,2.6235,2.6238,2.624,2.6363,0,2.6343,2.6395,2.6341,2.6405,2.6422,2.6344,2.6373,2.6357,2.6329,2.6339,2.6308,2.6322,2.6259,2.6255,2.6283,2.6251,2.6313,2.6242,2.6257,2.6259,2.6261,2.6439,2.6477,2.6594,2.6378,2.638,2.6382,0,2.6496,2.6491,2.6557,2.6519,2.6524,2.6552,2.6545,2.6557,2.6538,2.6515,2.6511,2.646,2.6491,2.6421,2.6462,2.6415,2.6419,2.6404,2.6408,2.6404,2.6325,2.6438,2.663,2.6647,2.6406,2.6404,2.6402,0,2.6639,2.665,2.6689,2.6684,2.6642,2.6663,2.6647,2.6624,2.6626,2.6622,2.6623,2.6623,2.6623,2.6624,2.6575,2.6529,2.6623,2.6548,2.6604,2.6605,2.6624,2.6623,2.6817,2.6632,2.6632,2.6632,2.6632,0,2.6784,2.6826,2.6753,2.6777,2.6822,2.6761,2.6808,2.6785,2.6765,2.6784,2.6718,2.6738,2.6673,2.6686,2.6648,2.6687,2.6689,2.667,2.6659,2.6674,2.6676,2.6673,2.6663,2.6636,2.6635,2.6635,2.6634,0,2.695,2.6902,2.694,2.6898,2.6889,2.6924,2.6888,2.6909,2.6877,2.6901,2.6904,2.6853,2.6865,2.6817,2.6821,2.6796,2.6853,2.6831,2.6859,2.6851,2.6908,2.6902,2.7104,2.7127,2.6931,2.6933,2.6935,0,2.7043,2.7073,2.7035,2.7042,2.7029,2.7042,2.7043,2.6986,2.6991,2.6971,2.6995,2.7001,2.7002,2.7025,2.6989,2.6992,2.6966,2.7037,2.6966,2.698,2.6964,2.6961,2.6963,2.7051,2.7053,2.7055,2.7057,0,2.7213,2.7189,2.7193,2.719,2.7194,2.7189,2.7179,2.719,2.7127,2.7136,2.7146,2.7148,2.7151,2.7158,2.7153,2.7138,2.7087,2.708,2.7092,2.7106,2.712,2.7111,2.6896,2.7075,2.7073,2.7072,2.7071,2.707,2.7344,2.7366,2.7342,2.7349,2.7336,2.7329,2.7346,2.7316,2.7324,2.7321,2.7288,2.7304,2.7285,2.7273,2.7263,2.7276,2.7242,2.7261,2.7265,2.727,2.7278,2.7122,2.7275,2.7275,2.7274,2.7273,2.7273,0,2.7508,2.7489,2.7496,2.7484,2.749,2.7443,2.743,2.7438,2.7453,2.7439,2.7442,2.7454,2.7461,2.7426,2.7428,2.7445,2.7421,2.7447,2.7443,2.744,2.7309,2.7297,2.7465,2.7465,2.7465,2.7465,2.7465,2.7465,2.7594,2.7629,2.7602,2.7631,2.7612,2.7626,2.7623,2.7617,2.7605,2.762,2.7625,2.7602,2.758,2.758,2.7584,2.7573,2.7576,2.7609,2.7591,2.7468,2.745,2.7432,2.7419,2.7611,2.7611,2.772,2.7721,2.7722]},{"header":{"parameterUnit":"m.s-1","parameterCategory":1,"la1":30.2991,"la2":30.254,"lo1":-89.0895,"lo2":-89.0444,"dy":0.0017,"dx":0.0017,"nx":28,"ny":28,"refTime":"2025-08-23T21:00:00:Z","depth":0,"parameterNumber":3,"parameterNumberName":"V-component_of_WINDS"},"data":[0,0,0,0,0,0,0,0,0,0,0,0,0,0,0,0,0,0,0,0,0,0,0,0,0,0,0,0,0,0,0,0,0,0,0,0,0,0,0,0,0,0,0,0,0,0,0,0,0,0,0,0,0,0,0,0,0,0,2.4593,2.4596,0,2.4885,2.4889,2.4892,2.4982,2.498,2.4979,2.4978,2.5264,2.5273,2.5282,0,0,0,0,0,0,0,0,0,0,0,0,0,2.41,2.4109,2.4593,2.4596,2.46,2.4885,2.4889,2.4893,2.4982,2.498,2.4979,2.4977,2.5261,2.5272,2.5283,0,0,0,0,0,0,0,0,0,0,0,0,0,2.4345,2.4112,2.4592,2.4679,2.469,2.4884,2.4889,2.4894,2.4982,2.498,2.4978,2.4976,2.5258,2.5271,2.5284,2.5409,0,0,2.5325,2.5331,0,0,0,0,0,0,0,0,2.4331,2.4363,2.4663,2.4674,2.4686,2.4895,2.4821,2.5066,2.4983,2.4871,2.4977,2.4975,2.5142,2.5165,2.5224,2.5422,2.5435,2.5326,2.5334,2.534,2.5344,0,0,0,0,0,0,0,2.4314,2.4351,2.4708,2.4667,2.4681,2.47,2.4733,2.4868,2.5014,2.488,2.4888,2.4922,2.5148,2.5211,2.5232,2.5439,2.5326,2.5338,2.5346,2.5351,2.5755,2.5758,0,0,0,0,0,0,2.4284,2.4336,2.4699,2.4717,2.45,2.4711,2.4747,2.483,2.5013,2.5039,2.4923,2.4925,2.5189,2.5216,2.5242,2.5402,2.534,2.5353,2.536,2.5753,2.5756,2.5759,0,0,0,0,0,0,2.4273,2.4316,2.4687,2.4529,2.4578,2.4722,2.4814,2.4837,2.49,2.5046,2.5071,2.4961,2.5189,2.5223,2.5368,2.5413,2.5359,2.5371,2.575,2.5754,2.5757,2.5722,0,0,0,0,0,0,2.4259,2.4311,2.4363,2.453,2.4586,2.4812,2.4817,2.4844,2.4924,2.4929,2.5088,2.5112,2.519,2.5348,2.5381,2.5431,2.5381,2.5746,2.5751,2.5756,2.5719,2.5724,2.5728,0,0,0,0,0,2.4241,2.4337,2.4365,2.4408,2.4654,2.4814,2.4846,2.4936,2.4928,2.4979,2.5073,2.5107,2.5403,2.5362,2.54,2.5454,2.5744,2.575,2.5756,2.5717,2.5723,2.5728,0,0,0,0,0,0,2.4167,2.4361,2.4393,2.4548,2.4664,2.4829,2.4897,2.4939,2.5057,2.5056,2.5159,2.5194,2.5332,2.5407,2.5358,2.5585,2.5574,2.5588,2.5532,2.5538,2.5542,2.5521,2.5392,0,0,0,0,0,2.417,2.4287,2.4449,2.4569,2.4627,2.4751,2.4824,2.4885,2.5008,2.5056,2.516,2.5275,2.5394,2.547,2.5587,2.573,2.5766,2.5786,2.579,2.5793,2.5804,2.5886,2.5898,2.5779,2.5779,2.5779,0,0,2.4174,2.4295,2.4362,2.4558,2.4655,2.4772,2.4792,2.4914,2.5001,2.5073,2.5219,2.5299,2.5433,2.5579,2.5648,2.5646,2.5845,2.5801,2.5802,2.5812,2.5894,2.5905,2.5915,2.5783,2.5782,2.5781,0,0,2.4243,2.4346,2.446,2.4558,2.4707,2.479,2.4817,2.4977,2.5034,2.5183,2.524,2.5342,2.5544,2.5639,2.5713,2.582,2.5856,2.5855,2.5877,2.5956,2.5965,2.5974,2.6013,2.6026,2.5865,2.5865,2.5865,0,2.4229,2.4412,2.4511,2.4633,2.4716,2.4792,2.4906,2.4995,2.5172,2.5227,2.5223,2.5481,2.5576,2.5746,2.5772,2.5829,2.5862,2.5838,2.5957,2.5966,2.5976,2.6014,2.6028,2.5864,2.5864,2.5864,2.5864,0,2.4388,2.4513,2.4586,2.4762,2.4853,2.4969,2.5084,2.5164,2.5216,2.5298,2.5447,2.5566,2.5709,2.5753,2.5803,2.593,2.5924,2.5937,2.5928,2.5985,2.6023,2.6038,2.5863,2.5863,2.5863,2.5864,0,0,2.4418,2.465,2.4675,2.4756,2.4927,2.5024,2.5143,2.5288,2.5355,2.5475,2.5576,2.5747,2.5761,2.5845,2.5906,2.5975,2.6054,2.598,2.5985,2.5991,2.6202,2.6192,2.6207,2.6079,2.6082,2.6085,2.6191,0,2.451,2.4731,2.4825,2.5001,2.5118,2.5192,2.5296,2.541,2.5489,2.5597,2.5683,2.5804,2.5813,2.5865,2.5936,2.6029,2.6098,2.6023,2.6172,2.6176,2.6138,2.6227,2.6217,2.6311,2.6206,2.6208,2.621,0,2.4647,2.4773,2.4963,2.5122,2.5175,2.5267,2.5408,2.5511,2.5641,2.5694,2.579,2.5848,2.5973,2.5955,2.6128,2.6075,2.6141,2.6196,2.6201,2.6219,2.6197,2.6247,2.6343,2.6357,2.6234,2.6232,2.6231,0,2.4651,2.4868,2.5011,2.5078,2.5266,2.533,2.541,2.5539,2.5621,2.5743,2.5797,2.5929,2.6001,2.6101,2.6193,2.6171,2.6357,2.6346,2.6403,2.64,2.6439,2.6435,2.6547,2.6479,2.6479,2.6479,2.6478,0,2.4745,2.4858,2.5016,2.5104,2.5232,2.5337,2.546,2.5545,2.5659,2.5763,2.5832,2.5926,2.6041,2.6149,2.6221,2.6353,2.6385,2.6429,2.6447,2.6424,2.6419,2.6469,2.6465,2.6483,2.6482,2.6481,2.648,0,2.4772,2.4883,2.5043,2.521,2.5255,2.5342,2.5483,2.557,2.5653,2.5783,2.5819,2.5949,2.6081,2.6182,2.635,2.6399,2.6539,2.6557,2.6497,2.6506,2.6557,2.6551,2.6706,2.6732,2.6646,2.6646,2.6647,0,2.4825,2.4915,2.5093,2.517,2.5252,2.5373,2.5459,2.5564,2.5649,2.5806,2.5873,2.601,2.6126,2.6331,2.6438,2.6568,2.659,2.6636,2.661,2.6584,2.6592,2.6586,2.6596,2.6639,2.6639,2.6639,2.664,0,2.4908,2.4959,2.5082,2.5225,2.5326,2.5442,2.5559,2.5616,2.5742,2.5834,2.5972,2.6062,2.6237,2.6372,2.6513,2.6592,2.6636,2.6647,2.6668,2.6645,2.6607,2.663,2.6507,2.6643,2.6643,2.6643,2.6642,2.6642,2.4951,2.5035,2.5175,2.5309,2.541,2.5518,2.5609,2.5706,2.5824,2.5979,2.6032,2.6174,2.6302,2.6497,2.6577,2.6687,2.6689,2.6717,2.6725,2.6731,2.6729,2.6589,2.6713,2.6713,2.6713,2.6713,2.6713,0,2.5038,2.5133,2.5256,2.542,2.5526,2.5563,2.5695,2.578,2.5906,2.6023,2.6137,2.6295,2.6427,2.6545,2.6682,2.6747,2.6771,2.6779,2.6776,2.6793,2.6719,2.6689,2.6758,2.6758,2.6758,2.6758,2.6758,2.6758,2.5096,2.5242,2.5309,2.5504,2.5597,2.5741,2.5813,2.5912,2.6007,2.6183,2.6294,2.6373,2.649,2.6636,2.6758,2.6789,2.6836,2.6839,2.6875,2.6804,2.6798,2.6793,2.6765,2.6848,2.6848,2.6941,2.6941,2.6942]}]]